Weather Roundup
Issued by NWS Springfield, MO

Home | Current Version | Previous Version | Text Only | Print | Product List | Glossary On
Versions: 1 2 3 4 5 6 7 8 9 10 11 12 13 14 15 16 17 18 19 20 21 22 23 24 25 26 27 28 29 30 31 32 33 34 35 36 37 38 39 40 41 42 43 44 45 46 47 48 49 50
000
NZUS99 KSGF 180257
HRRSGF

HOURLY WEATHER
NATIONAL WEATHER SERVICE SPRINGFIELD MO
900 PM CST FRI NOV 17 2017

......SGF CWA......

CITY           SKY/WX    TMP DP  RH WIND       PRES   REMARKS
SPRINGFIELD    PTCLDY    65  61  87 S18       29.59F
JOPLIN         PTCLDY    71  63  75 S21G33    29.55S
WEST PLAINS    CLOUDY    66  61  84 S12G21    29.68S
ROLLA          CLEAR     63  59  87 S18G25    29.60F
BRANSON        PTCLDY    66  59  77 S14G20    29.65S

......SURROUNDING SGF CWA......

CITY           SKY/WX    TMP DP  RH WIND       PRES   REMARKS
CHANUTE        CLOUDY    71  60  68 S15       29.49F
PARSONS        CLOUDY    72  62  71 S15G24    29.51F
COFFEYVILLE    CLOUDY    73  62  68 S17G28    29.50F
EMPORIA        CLOUDY    64  51  62 S12       29.45F
HARRISON AR    PTCLDY    68  61  78 S12G21    29.66S

......KANSAS AND MISSOURI......

CITY           SKY/WX    TMP DP  RH WIND       PRES   REMARKS
KANSAS CTY INT CLOUDY    59  58  96 S6        29.47F
SEDALIA        PTCLDY    65  61  87 S12       29.52S
ST JOSEPH      FOG       49  49 100 N5        29.48R VSB 3/4
ST LOUIS       NOT AVBL
WICHITA        CLOUDY    67  51  56 S13       29.42F
TOPEKA         CLOUDY    56  55  97 CALM      29.45F
OLATHE         CLOUDY    59  59 100 CALM      29.48S

......TENNESSEE......

CITY           SKY/WX    TMP DP  RH WIND       PRES   REMARKS
MEMPHIS        NOT AVBL
NASHVILLE      CLOUDY    61  33  35 S21G30    29.91S

......ARKANSAS.......

CITY           SKY/WX    TMP DP  RH WIND       PRES   REMARKS
FAYETTEVILLE   PTCLDY    68  63  84 SW16G26   29.65F
FT SMITH       PTCLDY    72  63  73 S6        29.66F
LITTLE ROCK    MOCLDY    70  64  81 S14G21    29.75F

......OKLAHOMA.......

CITY           SKY/WX    TMP DP  RH WIND       PRES   REMARKS
TULSA          CLOUDY    75  64  68 S18G31    29.54F
PONCA CITY     CLOUDY    71  51  49 S9        29.48F
MCALESTER      PTCLDY    74  64  71 S13G23    29.64F
OKLAHOMA CITY  CLOUDY    74  57  55 S17       29.59S

......IOWA............

CITY           SKY/WX    TMP DP  RH WIND       PRES   REMARKS
DES MOINES     DRZL/FOG  49  49 100 N6        29.55F VSB 3/4
QUAD CITIES    CLOUDY    50  45  83 S8        29.55F

......ILLINOIS........

CITY           SKY/WX    TMP DP  RH WIND       PRES   REMARKS
QUINCY         NOT AVBL
CHICAGO        LGT RAIN  45  42  89 S12       29.59F FOG



USA.gov is the U.S. government's official web portal to all federal, state and local government web resources and services.